Regional Weather Roundup
Issued by NWS

Current Version | Previous Version | Text Only | Print | Product List | Glossary On
Versions: 1 2 3 4 5 6 7 8 9 10 11 12 13 14 15 16 17 18 19 20 21 22 23 24 25 26 27 28 29 30 31 32 33 34 35 36 37 38 39 40 41 42 43 44 45 46 47 48 49 50
000
ASUS45 KPSR 022110
RWRAZ

ARIZONA REGIONAL HOURLY WEATHER ROUNDUP
NATIONAL WEATHER SERVICE PHOENIX AZ
200 PM MST MON MAR 02 2015

NOTE: FAIR INDICATES FEW OR NO CLOUDS BELOW 12,000 FEET WITH NO
SIGNIFICANT WEATHER AND/OR OBSTRUCTIONS TO VISIBILITY.

AZZ001>003-036-022200-
NORTHWEST ARIZONA

CITY           SKY/WX    TMP DP  RH WIND       PRES   REMARKS
BULLHEAD CITY  LGT RAIN  55  46  71 NE9       29.85S
KINGMAN        MOSUNNY   49  40  71 SW20      29.84S
$$

AZZ004>008-015-016-018-022200-
NORTH CENTRAL ARIZONA

CITY           SKY/WX    TMP DP  RH WIND       PRES   REMARKS
GRAND CANYON   SNOW      31  29  92 SW13      29.81F VSB 1/2 WCI  21
PRESCOTT       LGT RAIN  38  32  79 SW12      29.86F WCI  30
FLAGSTAFF      HVY SNOW  30  28  92 SW15      29.83F VSB 1/4 WCI  19
PAYSON         RAIN      39  37  93 W12G18    29.90S WCI  32
PAGE           CLOUDY    43  38  82 E3        29.77R
$$

AZZ009>014-017-022200-
NORTHEAST ARIZONA

CITY           SKY/WX    TMP DP  RH WIND       PRES   REMARKS
WINSLOW        LGT RAIN  44  41  89 W17       29.83S
SAINT JOHNS    PTSUNNY   58  34  40 SW26G36   29.81F
WINDOW ROCK    CLOUDY    53  34  48 SW25G38   29.81F
SHOW LOW       LGT RAIN  43  37  81 S23G35    29.85F
$$

AZZ023-022200-
GREATER PHOENIX AREA

CITY           SKY/WX    TMP DP  RH WIND       PRES   REMARKS
PHOENIX        LGT RAIN  53  49  86 NW8       29.91F
BUCKEYE        CLOUDY    52  52 100 CALM      29.93F
GLENDALE       LGT RAIN  52  50  93 CALM      29.94F
LUKE AFB       LGT RAIN  52  49  87 VRB5      29.91F
DEER VALLEY    LGT RAIN  50  46  86 NW6       29.92S FOG
SCOTTSDALE     LGT RAIN  50  46  86 CALM      29.95S FOG
MESA-FALCON    CLOUDY    48  48 100 W13       29.93F
MESA-GATEWAY   RAIN      50  48  93 W12       29.94S
CHANDLER       LGT RAIN  52  48  87 W15       29.93S
$$

AZZ027-028-022200-
SOUTHWEST MARICOPA COUNTY AND PINAL COUNTY

CITY           SKY/WX    TMP DP  RH WIND       PRES   REMARKS
CASA GRANDE    CLOUDY    52  46  82 W10G16    29.93F
GILA BEND      PTSUNNY   55  48  78 SW6       29.92F
$$

AZZ503-504-507>509-022200-
SOUTHEAST ARIZONA

CITY           SKY/WX    TMP DP  RH WIND       PRES   REMARKS
TUCSON         CLOUDY    68  44  42 S26G44    29.89F
DAVIS-MONTHAN  CLOUDY    67  45  45 S25G33    29.88F
RYAN FIELD       N/A     70  46  43 S28G43    29.89F
NOGALES        LGT RAIN  58  48  69 SW15G30   29.96F
SIERRA VISTA   LGT RAIN  55  50  82 SW10G28   29.96F
DOUGLAS        CLOUDY    63  45  51 S26G33    29.97F
SAFFORD        CLOUDY    70  41  34 S22G32    29.85F
$$

AZZ020-021-025-026-031-022200-
SOUTHWEST ARIZONA

CITY           SKY/WX    TMP DP  RH WIND       PRES   REMARKS
YUMA           PTSUNNY   63  49  60 S7        29.91F
$$

CAZ031-033-041-043-047-048-061-022200-
SOUTHERN CALIFORNIA

CITY           SKY/WX    TMP DP  RH WIND       PRES   REMARKS
DOWNTOWN L.A.  MOSUNNY   59  42  53 VRB3      29.90F
L.A. AIRPORT   PTSUNNY   59  41  51 W10       29.91F
SAN DIEGO      PTSUNNY   60  44  55 SW13      29.96F
BURBANK        MOSUNNY   57  40  52 S6        29.89F
ONTARIO        PTSUNNY   51  43  74 VRB5      29.91F
RIVERSIDE      CLOUDY    51  44  77 VRB3      29.91F
PALM SPRINGS   PTSUNNY   62  43  49 VRB6      29.89F
EL CENTRO NAS  LGT RAIN  57  45  64 W29       29.93R
IMPERIAL       TSTM      55  48  77 W20G37    29.91S
BLYTHE         MOSUNNY   62  44  51 SW16G22   29.89F
NEEDLES        MOSUNNY   62  43  49 S13       29.84F
$$

NVZ020-UTZ003-022200-
SOUTHERN NEVADA-UTAH

CITY           SKY/WX    TMP DP  RH WIND       PRES   REMARKS
LAS VEGAS      PTSUNNY   57  36  45 SW21G29   29.73F
SALT LAKE CITY LGT RAIN  41  35  79 SE5       29.66F
$$

NMZ009-TXZ055-022200-
NEW MEXICO-WEST TEXAS

CITY           SKY/WX    TMP DP  RH WIND       PRES   REMARKS
ALBUQUERQUE    CLOUDY    59  32  36 S29G37    29.88F
EL PASO        LGT RAIN  55  40  56 SW7       29.98F
$$


........................KEY........................
SKY/WX - SKY CONDITION/WEATHER
TMP    - TEMPERATURE IN FAHRENHEIT
DP     - DEW POINT IN FAHRENHEIT
RH     - RELATIVE HUMIDITY IN PERCENT
WIND   - DIRECTION AND SPEED IN MILES PER HOUR (MPH)
VRB    - VARIABLE WIND DIRECTION
PRES   - MEAN SEA LEVEL PRESSURE IN INCHES OF MERCURY
         F - FALLING PRESSURE   R - RISING PRESSURE
         S - STEADY PRESSURE
VSB    - VISIBILITY IN MILES
HX     - HEAT INDEX IN FAHRENHEIT
WCI    - WIND CHILL INDEX IN FAHRENHEIT
TC     - TEMPERATURE IN CELSIUS WHICH IS ALSO KNOWN AS
         TEMPERATURE IN CENTIGRADE
AFB    - AIR FORCE BASE
         LUKE AFB IS LUKE AIR FORCE BASE
         DAVIS-MONTHAN IS DAVIS-MONTHAN AIR FORCE BASE
NAS    - NAVAL AIR STATION
         EL CENTRO NAS IS EL CENTRO NAVAL AIR STATION
N/A    - NOT AVAILABLE


USA.gov is the U.S. government's official web portal to all federal, state and local government web resources and services.